Other Public Products
Issued by NWS Grand Forks, ND

Home | Current Version | Previous Version | Graphics & Text | Print | Product List | Glossary On
Versions: 1 2 3 4 5 6 7 8 9 10 11 12 13 14 15 16 17 18 19 20 21 22 23 24 25 26 27 28 29 30 31 32 33 34 35 36 37 38 39 40 41 42 43 44 45 46 47 48 49 50
000
FPUS83 KFGF 182031
OPUFGF
PRAIRIE TO PINES WEATHER ROUNDUP
NATIONAL WEATHER SERVICE EASTERN NORTH DAKOTA/GRAND FORKS ND
200 PM CST SUN FEB 18 2018

 **SATELLITE DATA USED TO AUGMENT SKY COVER AT AUTOMATED STATIONS**
 *****  WEATHER ACROSS EASTERN NORTH DAKOTA  *****

CITY           SKY/WX    TMP DP  RH WIND       PRES   REMARKS
GRAND FORKS    LGT SNOW  14  10  84 N23       29.84S VSB 1   WCI  -5
GRND FORKS AFB CLOUDY    12   9  85 NE23G29   29.84S BLWGSNOWWCI  -7
GRND FORKS NWS   N/A     13  11  93 N13       29.82F WCI  -2
BUXTON           N/A     -3  14 100 N22         N/A  WCI -26
DEVILS LAKE    PTSUNNY   10   3  72 NE17      29.86R WCI  -7
FARGO          PTSUNNY   18  15  88 N22G31    29.73R FOG     WCI   1
WAHPETON ARPT  MOCLDY    25  18  74 N20G26    29.64S WCI  11
$$

 *****  WEATHER ACROSS CENTRAL AND WESTERN NORTH DAKOTA  *****

CITY           SKY/WX    TMP DP  RH WIND       PRES   REMARKS
JAMESTOWN      MIX PCPN  14  10  84 N24       29.74R WCI  -5
BISMARCK       CLOUDY    13   7  77 N15       29.83R WCI  -3
MINOT          FAIR      11   2  67 N17       29.90R WCI  -6
MINOT AFB      FAIR      10   1  66 N15       29.89S WCI  -6
GARRISON         N/A     10   2  69 N12G21    29.86R WCI  -5
WILLISTON      FAIR      10   1  67 N14       29.94F WCI  -6
DICKINSON      CLOUDY     8   1  73 N10       29.81R WCI  -6
HETTINGER      LGT SNOW   8   2  76 N20       29.80R WCI -11
$$

 *****  OTHER OBSERVATIONS NORTHEAST NORTH DAKOTA  *****

CITY           SKY/WX    TMP DP  RH WIND       PRES   REMARKS
WALHALLA       FAIR      12   5  73 N16       29.92F WCI  -4
LANGDON        NOT AVBL
CAVALIER       LGT SNOW  10   7  85 N16       29.90F WCI  -7
GRAFTON        NOT AVBL
CANDO          CLOUDY    12   1  62 N21       29.90R WCI  -6
FORT TOTTEN    NOT AVBL
ROLLA          FAIR       9   0  66 N18       29.87R WCI -10
RUGBY          NOT AVBL
 ***** THE ABOVE OBSERVATIONS ARE NON NWS ARE NOT QUALITY
        CONTROLLED AND MAY MIS-REPORT RAIN FOR SNOW...
$$

 *****  OTHER OBSERVATIONS SOUTHEAST NORTH DAKOTA *****

CITY           SKY/WX    TMP DP  RH WIND       PRES   REMARKS
COOPERSTOWN    SNOW      12   9  85 N28G38    29.78R VSB 1/4 WCI  -9
VALLEY CITY    NOT AVBL
OAKES            N/A     18  12  79 N26G35    29.69R WCI  -1
GWINNER          N/A     18  16  93 N25G32    29.67R FOG     WCI  -1
SHEYENNE NWR     N/A     18  15  86 NE17      29.95S WCI   3
BUFFALO          N/A     14  11  87 SE22        N/A  WCI  -5
WYNDMERE       NOT AVBL
 ***** THE ABOVE OBSERVATIONS ARE NON NWS ARE NOT QUALITY
       CONTROLLED AND MAY MIS-REPORT RAIN FOR SNOW...
$$

  *****  WEATHER ACROSS NORTHERN MINNESOTA  *****

CITY           SKY/WX    TMP DP  RH WIND       PRES   REMARKS
FLAG ISLAND    LGT SNOW   9   3  78 N13       29.89F WCI  -7
WARROAD        LGT SNOW  10   7  85 N12       29.87F WCI  -4
ROSEAU         NOT AVBL
HALLOCK        PTSUNNY   14   7  73 N16       29.88F WCI  -2
THF RVR FALLS  LGT SNOW  14   9  79 NE20      29.80F WCI  -3
HALSTAD        NOT AVBL
FOSSTON        LGT SNOW  16   9  73 NE14G21   29.74S WCI   1
BAUDETTE       LGT SNOW  10   5  80 NE13      29.83F WCI  -5
WASKISH        LGT SNOW  14  10  85 NE13G18   29.78F WCI   0
CROOKSTON      LGT SNOW  14  10  85 NE18G25   29.81S WCI  -3
$$
  *****  WEATHER ACROSS CENTRAL AND WEST MINNESOTA  *****

CITY           SKY/WX    TMP DP  RH WIND       PRES   REMARKS
BEMIDJI        LGT SNOW  17  13  83 NE12      29.71F WCI   5
PARK RAPIDS    FLURRIES  19  13  77 NE9       29.65R WCI   8
WADENA         FAIR      19  14  79 N15       29.62R WCI   5
DETROIT LAKES  PTSUNNY   21  16  79 NE14      29.67F WCI   8
MOORHEAD       DRIZZLE   19  14  79 N20G25    29.72S WCI   4
FERGUS FALLS   FAIR      25  16  68 NE13G21   29.62R WCI  13
ELBOW LAKE     FAIR      29  19  66 NE12      29.60R WCI  20
MORRIS MN      FAIR      39  23  52 NW8       29.54R
STAPLES        FAIR      25  12  58 NE7       29.60F WCI  17
WHEATON        FAIR      30  19  64 N17       29.62R WCI  18
$$
  *****  WEATHER ELSEWHERE ACROSS MINNESOTA  *****

CITY           SKY/WX    TMP DP  RH WIND       PRES   REMARKS
DULUTH         LGT SNOW  20  16  84 E13       29.67F FOG     WCI   7
INTRNTL FALLS  SNOW      10   6  84 NE10      29.83F VSB 1/2 WCI  -4
ELY            LGT SNOW  16  10  79 E12       29.75F VSB 3/4 WCI   3
CLOQUET        CLOUDY    21  14  73 NE8       29.66F WCI  12
BRAINERD       PTSUNNY   27  12  53 NE13      29.62F WCI  16
HIBBING        SNOW      17  13  84 E9        29.70F VSB 1/2 WCI   6
ALEXANDRIA     CLOUDY    31  20  63 NE8       29.56S WCI  23
SAINT CLOUD    FAIR      40  28  62 S12       29.56F
MINNEAPOLIS    CLOUDY    43  30  60 S13       29.63F
$$

  *****  WEATHER ACROSS SOUTH DAKOTA  *****

CITY           SKY/WX    TMP DP  RH WIND       PRES   REMARKS
SIOUX FALLS    CLOUDY    43  29  57 S17G25    29.53F
BROOKINGS      FAIR      43  29  57 SW14      29.50S
WATERTOWN      PTSUNNY   39  26  59 NW12      29.50R
HURON          FAIR      33  26  75 NW21      29.56R WCI  21
SISSETON         N/A     27  21  78 N23       29.60R WCI  12
ABERDEEN       CLOUDY    22  15  75 N23G31    29.68R WCI   6
MITCHELL       FAIR      38  29  70 NW14      29.55R
PIERRE         CLOUDY    23  19  85 N21       29.66R WCI   8
MOBRIDGE       LGT SNOW  19  12  74 N22       29.69R WCI   2
RAPID CITY     SNOW      14  10  84 N35G43    29.64R VSB 1/2 WCI  -8
$$

  *****  SOME WEATHER IN NEARBY STATES *****

CITY           SKY/WX    TMP DP  RH WIND       PRES   REMARKS
GLASGOW MT     CLOUDY     7  -1  70 N14       29.98R WCI -10
GREAT FALLS MT CLOUDY     4  -3  73 N14       29.93R WCI -14
CHEYENNE WY    FAIR      58  12  16 W33G43    29.47F
SCOTTSBLUFF NE FAIR      57  27  31 NE17      29.44F
OMAHA NE       PTSUNNY   56  27  32 S35G44    29.60F
DES MOINES IA  CLOUDY    53  25  33 S23G41    29.72F
DAVENPORT IA   FAIR      41  30  65 SE21G29   29.97F
CHICAGO IL     PTSUNNY   35  26  69 S12       30.11F
EAU CLAIRE WI  FAIR      37  27  67 S24G39    29.69F
LA CROSSE WI   FAIR      41  28  60 S23G31    29.80F
$$

  *****  SOME NATIONAL WEATHER *****

CITY           SKY/WX    TMP DP  RH WIND       PRES   REMARKS
LA GUARDIA NY  FAIR      44  23  43 NW13      30.36R
RALEIGH NC     FAIR      60  34  37 E7        30.34S
ATLANTA GA     PTSUNNY   65  51  60 S8        30.23F
NEW ORLEANS LA PTSUNNY   80  65  59 SE14      30.13F
OKLAHOMA CITY  CLOUDY    54  45  71 S18G29    29.83F
ALBUQUERQUE NM PTSUNNY   60  38  43 S14G21    29.88F
SALT LAKE CITY CLOUDY    48  35  60 NW26G32   29.54S
LOS ANGELES CA FAIR      64  50  60 W10       29.98F
BOISE ID       FAIR      38  26  62 NW21G36   29.61R
SEATTLE WA     SNOW      34  30  85 N16       29.71R VSB 1/2 WCI  24
$$

*** WEATHER ACROSS MANITOBA...SASKATCHEWAN AND ONTARIO ***
                ***ONTARIO***

CITY           SKY/WX    TMP DP  RH WIND       PRES   REMARKS
GERALDTON      FLURRIES   7  -8  51 VRB2      30.00F
THUNDER BAY    SNOW       9   5  85 E10       29.96F VSB 3/8 WCI  -6
SIOUX LOOKOUT  LGT SNOW   5  -4  66 SE5       29.92F WCI  -4
TORONTO        MOSUNNY   39  19  45 SW9       30.28S
BIG TROUT LK   SUNNY    -13 -27  48 NW8       30.07R WCI -30
PICKLE LAKE    CLOUDY     3  -6  66 VRB2      29.95F
DRYDEN         LGT SNOW   5   1  85 NE7       29.90F WCI  -7
KENORA         LGT SNOW   7   0  72 NE7       29.90F WCI  -5
$$
                *** MANITOBA***

CITY           SKY/WX    TMP DP  RH WIND       PRES   REMARKS
BRANDON        MOSUNNY   12  -2  52 N12       29.95S WCI  -2
DAUPHIN        SUNNY      9  -2  61 W6        30.00F WCI  -1
ISLAND LAKE    SUNNY    -11 -26  49 W7        30.10R WCI -26
PILOT MOUND      N/A      9   0  66 N15G21      N/A  WCI  -8
THE PAS        MOSUNNY   -6 -20  49 N6        30.09F WCI -18
THOMPSON       SUNNY    -18 -36  39 NW7       30.13R WCI -35
WINNIPEG       MOSUNNY   10   1  67 NE13      29.97F WCI  -5
LYNN LAKE      SUNNY    -20 -38  39 NW7       30.08R WCI -37
CHURCHILL      SUNNY    -35 -45  55 W18       30.08R WCI -66
GILLAM         SUNNY    -26 -40  46 W13       30.11R WCI -50
$$
                ***SASKATCHEWAN***

CITY           SKY/WX    TMP DP  RH WIND       PRES   REMARKS
ESTEVAN        PTSUNNY   10  -2  56 N13       29.97R WCI  -5
KINDERSLEY     MOSUNNY    7   0  72 NW9       30.00F WCI  -7
LLOYDMINSTER   PTSUNNY    3  -4  72 W10       30.00S WCI -12
PRINCE ALBERT  PTSUNNY    3  -6  66 N6        30.04F WCI  -8
REGINA         CLOUDY     9  -4  56 N2        29.98S
YORKTON        SUNNY      1  -9  60 NW5       30.00S WC


USA.gov is the U.S. government's official web portal to all federal, state and local government web resources and services.